CYGFM03

Last updated on Sun Oct 19 2025 00:02:22 GMT+0000 (Coordinated Universal Time)

1 41891U 16078H 25291.30558563 .00027926 00000+0 53739-3 0 9994 2 41891 34.9443 25.9555 0007915 48.3335 311.8063 15.46877885491332
UTC large
Height (km)
Speed (km/s)
/
Latitude / Longitude
Inclination (degrees)
Orbital Period (minutes)
Azimuth
Elevation
Range (km)
Doppler Factor

Next 0 passes for location: London (51.5072 / 0.1276)

Sorry there are no passes over London.